Starlink 30059

decayed
NORAD ID: 55714 Int'l Des: 2023-026 Owner: SPXS Country: US Constellation: starlink
LEOCIRCULAR
Group

About Starlink 30059

Description loading...

Altitude History

Altitude vs Time

uPlot chart will show altitude changes over time

Two-Line Element Set

1 55714U 23026V 23266.96974204 .06887139 88439-5 36322-2 0 9992
2 55714 42.9897 109.1961 0016510 261.7703 98.1309 16.18774564 33745
Epoch: Sep 23, 2023 • Age: 21413 hours

Current Status

Position data unavailable
Launch Date Feb 27, 2023
Age 3 years
Decay Date Sep 23, 2023
Type internet

Technical Details

Classification Payload
Mass 730.00 kg
Dry Mass 700.00 kg
Total Mass 730.00 kg
Length 0.30 m
Diameter 4.10 m
Span 29.00 m
Shape Box + pan
Manufacturer SPXS
Bus Type Starlink V2M
Phase Status Unknown Transfer Status
Owner/State SPXS/US

Large Constellations

Loading constellations...